This demonstration page uses our WeatherBlox Daily Observations layout. Learn more.

Left ArrowRight Arrow

Hourly Observations for June 23, 2017

Temp ( °F °C ) Dew Point ( °F °C ) Humidity (%) Winds ( mph kmh ) Pressure ( in mb ) Visibility ( mi km ) Precip ( " mm )
12:05 am 00:05 Cloudy with Strong Thunderstorms 73 23 66 19 78 78 N 12 19 29.75 1008 10 16 0.00 0.00
12:43 am 00:43 Cloudy with Thunderstorms 70 21 66 19 88 88 N 13 20 29.78 1008 10 16 0.00 0.00
12:44 am 00:44 Cloudy with Thunderstorms 70 21 66 19 88 88 N 12 19 29.78 1008 10 16 0.00 0.00
12:54 am 00:54 Cloudy 72 22 66 19 83 83 N 10 17 29.78 1008 10 16 0.00 0.00
12:56 am 00:56 Cloudy 71 21.5 65 18.5 83 83 N 10 17 29.78 1009 10 16 0.71 18.03
1:16 am 01:16 Cloudy with Light Rain 70 21 64 18 83 83 N 8 13 29.80 1009 10 16 0.00 0.00
1:25 am 01:25 Cloudy N/A N/A N/A undefined N/A N/A 10 16 0.00 0.00
1:55 am 01:55 Mostly Cloudy 71 21.7 62 16.7 73 73 N 7 11 29.86 1011 10 16 0.00 0.00
2:56 am 02:56 Mostly Cloudy 72 22 61 16 69 69 NNW 13 20 29.84 1011 10 16 0.00 0.00
3:55 am 03:55 Partly Cloudy 69 20.4 61 16.2 77 77 Calm 29.83 1010 10 16 0.00 0.00
4:55 am 04:55 Partly Cloudy 68 20.2 54 12.3 61 61 Calm 29.86 1011 10 16 0.00 0.00
5:55 am 05:55 Partly Cloudy 66 19 54 12.4 66 66 Calm 29.91 1013 10 16 0.00 0.00
6:56 am 06:56 Partly Cloudy 67 19.5 54 12.4 64 64 Calm 29.95 1014 10 16 0.00 0.00
7:57 am 07:57 Partly Cloudy 67 19.5 54 12.4 64 64 Calm 29.95 1014 10 16 0.00 0.00
8:55 am 08:55 Mostly Cloudy 70 21.2 49 9.3 47 47 NW 9 15 29.96 1015 10 16 0.00 0.00
9:55 am 09:55 Mostly Cloudy 70 21 52 11 53 53 WNW 12 19 30.00 1016 10 16 0.00 0.00
10:58 am 10:58 Mostly Cloudy 70 21 48 9 46 46 WNW 12 19 30.03 1017 10 16 0.00 0.00
11:16 am 11:16 Mostly Cloudy with Light Showers 70 21 48 9 46 46 WNW 14 22 30.00 1016 10 16 0.00 0.00
11:56 am 11:56 Cloudy with Light Rain 68 20 50 10 53 53 WNW 14 22 30.05 1018 10 16 0.00 0.03
12:56 pm 12:56 Partly Cloudy 68 20 50 10 53 53 WNW 6 9 30.06 1018 10 16 0.00 0.00
1:57 pm 13:57 Partly Cloudy 75 24 54 12 47 47 WNW 12 19 29.98 1015 10 16 0.00 0.00
2:57 pm 14:57 Partly Cloudy 75 24 54 12 47 47 W 12 19 29.98 1015 10 16 0.00 0.00
3:56 pm 15:56 Mostly Cloudy 72 22 50 10 47 47 NNW 10 17 29.97 1015 10 16 0.00 0.00
4:56 pm 16:56 Mostly Cloudy 76 24.2 51 10.8 43 43 WNW 12 19 29.91 1013 10 16 0.00 0.00
5:56 pm 17:56 Cloudy 74 23.1 50 9.8 43 43 NW 16 26 29.91 1013 10 16 0.00 0.00
6:56 pm 18:56 Mostly Cloudy 73 22.9 49 9.3 42 42 NNW 16 26 29.97 1015 10 16 0.00 0.00
7:56 pm 19:56 Mostly Sunny 71 21.4 48 9 45 45 NW 10 17 29.97 1015 10 16 0.00 0.00
8:56 pm 20:56 Mostly Sunny 67 19.5 49 9.4 52 52 NW 7 11 30.00 1016 10 16 0.00 0.00
9:56 pm 21:56 Clear 62 16.9 50 9.8 63 63 WNW 7 11 30.03 1017 10 16 0.00 0.00
10:56 pm 22:56 Clear 58 14.6 51 10.4 76 76 NW 5 7 30.09 1019 10 16 0.00 0.00
11:56 pm 23:56 Clear 57 13.7 51 10.3 80 80 NW 7 11 30.09 1019 10 16 0.00 0.00

Powered by AerisWeather